Time,TemperatureF,DewpointF,PressureIn,WindDirection,WindDirectionDegrees,WindSpeedMPH,WindSpeedGustMPH,Humidity,HourlyPrecipIn,Conditions,Clouds,dailyrainin,SoftwareType,DateUTC
2013-02-20 00:00:00,69.9,0.0,30.09,ESE,111,0.0,0.0,0,0.00,,OVC042,0.00,VWS V13.01,2013-02-20 05:00:00,
2013-02-20 00:05:00,69.8,0.0,30.09,ESE,111,0.0,0.0,0,0.00,,BKN042,0.00,VWS V13.01,2013-02-20 05:05:00,
2013-02-20 00:10:00,69.7,0.0,30.09,ESE,111,0.0,0.0,0,0.00,,BKN042,0.00,VWS V13.01,2013-02-20 05:10:00,
2013-02-20 00:15:00,69.6,0.0,30.09,ESE,111,0.0,0.0,0,0.00,,BKN042,0.00,VWS V13.01,2013-02-20 05:15:00,
2013-02-20 00:20:00,69.5,0.0,30.09,ESE,111,0.0,0.0,0,0.00,,BKN042,0.00,VWS V13.01,2013-02-20 05:20:00,
2013-02-20 00:25:00,69.4,0.0,30.09,ESE,111,0.0,0.0,0,0.00,,BKN042,0.00,VWS V13.01,2013-02-20 05:25:00,
2013-02-20 00:30:00,69.3,0.0,30.09,ESE,111,0.0,0.0,0,0.00,,BKN042,0.00,VWS V13.01,2013-02-20 05:30:00,
2013-02-20 00:35:00,69.2,0.0,30.09,ESE,111,0.0,0.0,0,0.00,,BKN042,0.00,VWS V13.01,2013-02-20 05:35:00,
2013-02-20 00:40:00,69.1,0.0,30.09,ESE,111,0.0,0.0,0,0.00,,BKN042,0.00,VWS V13.01,2013-02-20 05:40:00,
2013-02-20 00:45:00,69.0,0.0,30.09,ESE,111,0.0,0.0,0,0.00,,BKN042,0.00,VWS V13.01,2013-02-20 05:45:00,
2013-02-20 00:50:00,69.0,0.0,30.08,ESE,111,0.0,0.0,0,0.00,,BKN042,0.00,VWS V13.01,2013-02-20 05:50:00,
2013-02-20 00:55:00,68.9,0.0,30.08,ESE,111,0.0,0.0,0,0.00,,BKN042,0.00,VWS V13.01,2013-02-20 05:55:00,
2013-02-20 01:00:00,68.9,0.0,30.08,ESE,111,0.0,0.0,0,0.00,,BKN042,0.00,VWS V13.01,2013-02-20 06:00:00,
2013-02-20 01:05:00,68.9,0.0,30.08,ESE,111,0.0,0.0,0,0.00,,BKN060,0.00,VWS V13.01,2013-02-20 06:05:00,
2013-02-20 01:10:00,68.8,0.0,30.07,ESE,111,0.0,0.0,0,0.00,,BKN060,0.00,VWS V13.01,2013-02-20 06:10:00,
2013-02-20 01:15:00,68.8,0.0,30.07,ESE,111,0.0,0.0,0,0.00,,BKN060,0.00,VWS V13.01,2013-02-20 06:15:00,
2013-02-20 01:20:00,68.7,0.0,30.07,ESE,111,0.0,0.0,0,0.00,,BKN060,0.00,VWS V13.01,2013-02-20 06:20:00,
2013-02-20 01:25:00,68.6,0.0,30.06,ESE,111,0.0,0.0,0,0.00,,BKN060,0.00,VWS V13.01,2013-02-20 06:25:00,
2013-02-20 01:30:00,68.5,0.0,30.06,ESE,111,0.0,0.0,0,0.00,,BKN060,0.00,VWS V13.01,2013-02-20 06:30:00,
2013-02-20 01:35:00,68.5,0.0,30.06,ESE,111,0.0,0.0,0,0.00,,BKN060,0.00,VWS V13.01,2013-02-20 06:35:00,
2013-02-20 01:40:00,68.3,0.0,30.06,ESE,111,0.0,0.0,0,0.00,,BKN060,0.00,VWS V13.01,2013-02-20 06:40:00,
2013-02-20 01:45:00,68.2,0.0,30.06,ESE,111,0.0,0.0,0,0.00,,BKN060,0.00,VWS V13.01,2013-02-20 06:45:00,
2013-02-20 01:50:00,67.9,0.0,30.06,ESE,111,0.0,0.0,0,0.00,,BKN060,0.00,VWS V13.01,2013-02-20 06:50:00,
2013-02-20 01:55:00,67.7,0.0,30.06,ESE,111,0.0,0.0,0,0.00,,BKN060,0.00,VWS V13.01,2013-02-20 06:55:00,
2013-02-20 02:00:00,67.6,0.0,30.07,ESE,111,0.0,0.0,0,0.00,,BKN060,0.00,VWS V13.01,2013-02-20 07:00:00,
2013-02-20 02:05:00,67.5,0.0,30.07,ESE,111,0.0,0.0,0,0.00,,FEW060,0.00,VWS V13.01,2013-02-20 07:05:00,
2013-02-20 02:10:00,67.4,0.0,30.06,ESE,111,0.0,0.0,0,0.00,,FEW060,0.00,VWS V13.01,2013-02-20 07:10:00,
2013-02-20 02:15:00,67.3,0.0,30.06,ESE,111,0.0,0.0,0,0.00,,FEW060,0.00,VWS V13.01,2013-02-20 07:15:00,
2013-02-20 02:20:00,67.2,0.0,30.06,ESE,111,0.0,0.0,0,0.00,,FEW060,0.00,VWS V13.01,2013-02-20 07:20:00,
2013-02-20 02:25:00,67.2,0.0,30.06,ESE,111,0.0,0.0,0,0.00,,FEW060,0.00,VWS V13.01,2013-02-20 07:25:00,
2013-02-20 02:30:00,67.1,0.0,30.06,ESE,111,0.0,0.0,0,0.00,,FEW060,0.00,VWS V13.01,2013-02-20 07:30:00,
2013-02-20 02:35:00,67.1,0.0,30.06,ESE,111,0.0,0.0,0,0.00,,FEW060,0.00,VWS V13.01,2013-02-20 07:35:00,
2013-02-20 02:40:00,67.1,0.0,30.06,ESE,111,0.0,0.0,0,0.00,,FEW060,0.00,VWS V13.01,2013-02-20 07:40:00,
2013-02-20 02:45:00,67.1,0.0,30.06,ESE,111,0.0,0.0,0,0.00,,FEW060,0.00,VWS V13.01,2013-02-20 07:45:00,
2013-02-20 02:50:00,67.1,0.0,30.06,ESE,111,0.0,0.0,0,0.00,,FEW060,0.00,VWS V13.01,2013-02-20 07:50:00,
2013-02-20 02:55:00,67.1,0.0,30.06,ESE,111,0.0,0.0,0,0.00,,FEW060,0.00,VWS V13.01,2013-02-20 07:55:00,
2013-02-20 03:00:00,67.0,0.0,30.06,ESE,111,0.0,0.0,0,0.00,,FEW060,0.00,VWS V13.01,2013-02-20 08:00:00,
2013-02-20 03:05:00,67.0,0.0,30.05,ESE,111,0.0,0.0,0,0.00,,BKN049,0.00,VWS V13.01,2013-02-20 08:05:00,
2013-02-20 03:10:00,66.9,0.0,30.05,ESE,111,0.0,0.0,0,0.00,,BKN049,0.00,VWS V13.01,2013-02-20 08:10:00,
2013-02-20 03:15:00,66.9,0.0,30.05,ESE,111,0.0,0.0,0,0.00,,BKN049,0.00,VWS V13.01,2013-02-20 08:15:00,
2013-02-20 03:20:00,66.8,0.0,30.05,ESE,111,0.0,0.0,0,0.00,,BKN049,0.00,VWS V13.01,2013-02-20 08:20:00,
2013-02-20 03:25:00,66.7,0.0,30.05,ESE,111,0.0,0.0,0,0.00,,BKN049,0.00,VWS V13.01,2013-02-20 08:25:00,
2013-02-20 03:30:00,66.6,0.0,30.05,ESE,111,0.0,0.0,0,0.00,,BKN049,0.00,VWS V13.01,2013-02-20 08:30:00,
2013-02-20 03:35:00,66.6,0.0,30.05,ESE,111,1.0,2.0,0,0.00,,BKN049,0.00,VWS V13.01,2013-02-20 08:35:00,
2013-02-20 03:40:00,66.6,0.0,30.05,ESE,103,1.0,5.0,0,0.00,,BKN049,0.00,VWS V13.01,2013-02-20 08:40:00,
2013-02-20 03:45:00,66.5,0.0,30.05,ESE,102,0.0,5.0,0,0.00,,BKN049,0.00,VWS V13.01,2013-02-20 08:45:00,
2013-02-20 03:50:00,66.5,0.0,30.05,ESE,102,4.0,5.0,0,0.00,,BKN049,0.00,VWS V13.01,2013-02-20 08:50:00,
2013-02-20 03:55:00,66.4,0.0,30.05,ESE,102,0.0,5.0,0,0.00,,BKN049,0.00,VWS V13.01,2013-02-20 08:55:00,
2013-02-20 04:00:00,66.4,0.0,30.05,East,101,0.0,5.0,0,0.00,,BKN049,0.00,VWS V13.01,2013-02-20 09:00:00,
2013-02-20 04:05:00,66.5,0.0,30.05,East,101,0.0,0.0,0,0.00,,BKN065,0.00,VWS V13.01,2013-02-20 09:05:00,
2013-02-20 04:10:00,66.5,0.0,30.05,East,101,0.0,0.0,0,0.00,,BKN065,0.00,VWS V13.01,2013-02-20 09:10:00,
2013-02-20 04:15:00,66.5,0.0,30.04,East,101,0.0,0.0,0,0.00,,BKN065,0.00,VWS V13.01,2013-02-20 09:15:00,
2013-02-20 04:20:00,66.6,0.0,30.04,East,101,0.0,0.0,0,0.00,,BKN065,0.00,VWS V13.01,2013-02-20 09:20:00,
2013-02-20 04:25:00,66.6,0.0,30.05,East,101,0.0,0.0,0,0.00,,BKN065,0.00,VWS V13.01,2013-02-20 09:25:00,
2013-02-20 04:30:00,66.6,0.0,30.05,East,101,0.0,0.0,0,0.00,,BKN065,0.00,VWS V13.01,2013-02-20 09:30:00,
2013-02-20 04:35:00,66.7,0.0,30.05,ESE,102,0.0,0.0,0,0.00,,BKN065,0.00,VWS V13.01,2013-02-20 09:35:00,
2013-02-20 04:40:00,66.7,0.0,30.05,ESE,102,0.0,1.0,0,0.00,,BKN065,0.00,VWS V13.01,2013-02-20 09:40:00,
2013-02-20 04:45:00,66.8,0.0,30.05,East,101,0.0,1.0,0,0.00,,BKN065,0.00,VWS V13.01,2013-02-20 09:45:00,
2013-02-20 04:50:00,66.9,0.0,30.06,East,101,0.0,1.0,0,0.00,,BKN065,0.00,VWS V13.01,2013-02-20 09:50:00,
2013-02-20 04:55:00,66.9,0.0,30.06,East,101,0.0,1.0,0,0.00,,BKN065,0.00,VWS V13.01,2013-02-20 09:55:00,
2013-02-20 05:00:00,66.8,0.0,30.06,ESE,102,1.0,2.0,0,0.00,,BKN065,0.00,VWS V13.01,2013-02-20 10:00:00,
2013-02-20 05:05:00,66.7,0.0,30.05,East,101,0.0,0.0,0,0.00,,OVC035,0.00,VWS V13.01,2013-02-20 10:05:00,
2013-02-20 05:10:00,66.7,0.0,30.06,East,101,0.0,0.0,0,0.00,,OVC035,0.00,VWS V13.01,2013-02-20 10:10:00,
2013-02-20 05:15:00,66.7,0.0,30.06,East,101,0.0,5.0,0,0.00,,OVC035,0.00,VWS V13.01,2013-02-20 10:15:00,
2013-02-20 05:20:00,66.6,0.0,30.05,East,101,0.0,5.0,0,0.00,,OVC035,0.00,VWS V13.01,2013-02-20 10:20:00,
2013-02-20 05:25:00,66.7,0.0,30.05,East,101,2.0,5.0,0,0.00,,OVC035,0.00,VWS V13.01,2013-02-20 10:25:00,
2013-02-20 05:30:00,66.6,0.0,30.05,East,101,4.0,5.0,0,0.00,,OVC035,0.00,VWS V13.01,2013-02-20 10:30:00,
2013-02-20 05:35:00,66.7,0.0,30.05,East,98,0.0,2.0,0,0.00,,OVC035,0.00,VWS V13.01,2013-02-20 10:35:00,
2013-02-20 05:40:00,66.6,0.0,30.05,East,98,0.0,2.0,0,0.00,,OVC035,0.00,VWS V13.01,2013-02-20 10:40:00,
2013-02-20 05:45:00,66.6,0.0,30.05,East,98,0.0,2.0,0,0.00,,OVC035,0.00,VWS V13.01,2013-02-20 10:45:00,
2013-02-20 05:50:00,66.5,0.0,30.05,East,98,0.0,2.0,0,0.00,,OVC035,0.00,VWS V13.01,2013-02-20 10:50:00,
2013-02-20 05:55:00,66.4,0.0,30.05,East,98,0.0,2.0,0,0.00,,OVC035,0.00,VWS V13.01,2013-02-20 10:55:00,
2013-02-20 06:00:00,66.3,0.0,30.05,East,98,0.0,2.0,0,0.00,,OVC035,0.00,VWS V13.01,2013-02-20 11:00:00,
2013-02-20 06:05:00,66.2,0.0,30.05,East,98,0.0,0.0,0,0.00,,CLR,0.00,VWS V13.01,2013-02-20 11:05:00,
2013-02-20 06:10:00,66.2,0.0,30.06,East,98,0.0,0.0,0,0.00,,CLR,0.00,VWS V13.01,2013-02-20 11:10:00,
2013-02-20 06:15:00,66.1,0.0,30.06,East,98,2.0,4.0,0,0.00,,CLR,0.00,VWS V13.01,2013-02-20 11:15:00,
2013-02-20 06:20:00,66.1,0.0,30.07,East,98,0.0,4.0,0,0.00,,CLR,0.00,VWS V13.01,2013-02-20 11:20:00,
2013-02-20 06:25:00,66.1,0.0,30.07,East,98,0.0,4.0,0,0.00,,CLR,0.00,VWS V13.01,2013-02-20 11:25:00,
2013-02-20 06:30:00,66.1,0.0,30.07,East,98,0.0,4.0,0,0.00,,CLR,0.00,VWS V13.01,2013-02-20 11:30:00,
2013-02-20 06:35:00,66.0,0.0,30.08,East,98,0.0,0.0,0,0.00,,CLR,0.00,VWS V13.01,2013-02-20 11:35:00,
2013-02-20 06:40:00,66.0,0.0,30.08,East,98,0.0,0.0,0,0.00,,CLR,0.00,VWS V13.01,2013-02-20 11:40:00,
2013-02-20 06:45:00,65.9,0.0,30.08,East,98,0.0,0.0,0,0.00,,CLR,0.00,VWS V13.01,2013-02-20 11:45:00,
2013-02-20 06:50:00,66.0,0.0,30.09,East,98,0.0,4.0,0,0.00,,CLR,0.00,VWS V13.01,2013-02-20 11:50:00,
2013-02-20 06:55:00,66.1,0.0,30.08,East,98,4.0,4.0,0,0.00,,CLR,0.00,VWS V13.01,2013-02-20 11:55:00,
2013-02-20 07:00:00,66.2,0.0,30.08,East,98,1.0,5.0,0,0.00,,CLR,0.00,VWS V13.01,2013-02-20 12:00:00,
2013-02-20 07:05:00,66.3,0.0,30.08,NW,312,0.0,5.0,0,0.00,,SCT031,0.00,VWS V13.01,2013-02-20 12:05:00,
2013-02-20 07:10:00,66.3,0.0,30.08,WSW,256,0.0,5.0,0,0.00,,SCT031,0.00,VWS V13.01,2013-02-20 12:10:00,
2013-02-20 07:15:00,66.4,0.0,30.08,West,265,2.0,5.0,0,0.00,,SCT031,0.00,VWS V13.01,2013-02-20 12:15:00,
2013-02-20 07:20:00,66.5,0.0,30.08,West,267,3.0,5.0,0,0.00,,SCT031,0.00,VWS V13.01,2013-02-20 12:20:00,
2013-02-20 07:25:00,66.6,0.0,30.08,NNW,332,2.0,6.0,0,0.00,,SCT031,0.00,VWS V13.01,2013-02-20 12:25:00,
2013-02-20 07:30:00,66.6,0.0,30.09,NNW,336,2.0,6.0,0,0.00,,SCT031,0.00,VWS V13.01,2013-02-20 12:30:00,
2013-02-20 07:35:00,66.7,0.0,30.09,NNW,338,3.0,6.0,0,0.00,,SCT031,0.00,VWS V13.01,2013-02-20 12:35:00,
2013-02-20 07:40:00,66.8,0.0,30.09,NNW,340,4.0,6.0,0,0.00,,SCT031,0.00,VWS V13.01,2013-02-20 12:40:00,
2013-02-20 07:45:00,67.0,0.0,30.09,NNW,342,6.0,6.0,0,0.00,,SCT031,0.00,VWS V13.01,2013-02-20 12:45:00,
2013-02-20 07:50:00,67.4,0.0,30.09,NNW,346,2.0,6.0,0,0.00,,SCT031,0.00,VWS V13.01,2013-02-20 12:50:00,
2013-02-20 07:55:00,67.7,0.0,30.09,North,355,3.0,7.0,0,0.00,,SCT031,0.00,VWS V13.01,2013-02-20 12:55:00,
2013-02-20 08:00:00,67.9,0.0,30.09,North,355,3.0,7.0,0,0.00,,SCT031,0.00,VWS V13.01,2013-02-20 13:00:00,
2013-02-20 08:05:00,68.0,0.0,30.09,North,5,4.0,7.0,0,0.00,,SCT055,0.00,VWS V13.01,2013-02-20 13:05:00,
2013-02-20 08:10:00,68.3,0.0,30.09,North,5,6.0,7.0,0,0.00,,SCT055,0.00,VWS V13.01,2013-02-20 13:10:00,
2013-02-20 08:15:00,68.5,0.0,30.09,North,355,5.0,7.0,0,0.00,,SCT055,0.00,VWS V13.01,2013-02-20 13:15:00,
2013-02-20 08:20:00,68.7,0.0,30.09,North,360,1.0,7.0,0,0.00,,SCT055,0.00,VWS V13.01,2013-02-20 13:20:00,
2013-02-20 08:25:00,68.7,0.0,30.10,North,5,5.0,8.0,0,0.00,,SCT055,0.00,VWS V13.01,2013-02-20 13:25:00,
2013-02-20 08:30:00,69.0,0.0,30.10,North,11,3.0,9.0,0,0.00,,SCT055,0.00,VWS V13.01,2013-02-20 13:30:00,
2013-02-20 08:35:00,69.3,0.0,30.10,North,9,3.0,5.0,0,0.00,,SCT055,0.00,VWS V13.01,2013-02-20 13:35:00,
2013-02-20 08:40:00,69.4,0.0,30.10,NNE,15,1.0,9.0,0,0.00,,SCT055,0.00,VWS V13.01,2013-02-20 13:40:00,
2013-02-20 08:45:00,69.7,0.0,30.10,NNE,17,3.0,9.0,0,0.00,,SCT055,0.00,VWS V13.01,2013-02-20 13:45:00,
2013-02-20 08:50:00,70.5,0.0,30.10,NNE,14,4.0,9.0,0,0.00,,SCT055,0.00,VWS V13.01,2013-02-20 13:50:00,
2013-02-20 08:55:00,71.2,0.0,30.10,NNE,14,2.0,9.0,0,0.00,,SCT055,0.00,VWS V13.01,2013-02-20 13:55:00,
2013-02-20 08:59:00,72.1,0.0,30.10,NNE,17,3.0,9.0,0,0.00,,SCT055,0.00,VWS V13.01,2013-02-20 13:59:00,
2013-02-20 09:04:00,73.0,0.0,30.10,NNE,16,6.0,8.0,0,0.00,,FEW050,0.00,VWS V13.01,2013-02-20 14:04:00,
2013-02-20 09:09:00,74.0,0.0,30.10,North,11,5.0,8.0,0,0.00,,FEW050,0.00,VWS V13.01,2013-02-20 14:09:00,
2013-02-20 09:14:00,75.2,0.0,30.10,North,11,4.0,8.0,0,0.00,,FEW050,0.00,VWS V13.01,2013-02-20 14:14:00,
2013-02-20 09:19:00,76.4,0.0,30.10,North,11,0.0,8.0,0,0.00,,FEW050,0.00,VWS V13.01,2013-02-20 14:19:00,
2013-02-20 09:24:00,77.5,0.0,30.10,NNE,18,6.0,8.0,0,0.00,,FEW050,0.00,VWS V13.01,2013-02-20 14:24:00,
2013-02-20 09:29:00,77.3,0.0,30.10,NNE,25,5.0,8.0,0,0.00,,FEW050,0.00,VWS V13.01,2013-02-20 14:29:00,
2013-02-20 09:34:00,77.2,0.0,30.10,NNE,21,5.0,8.0,0,0.00,,FEW050,0.00,VWS V13.01,2013-02-20 14:34:00,
2013-02-20 09:39:00,77.0,0.0,30.10,NNE,21,4.0,8.0,0,0.00,,FEW050,0.00,VWS V13.01,2013-02-20 14:39:00,
2013-02-20 09:44:00,76.8,0.0,30.10,NNE,26,1.0,8.0,0,0.00,,FEW050,0.00,VWS V13.01,2013-02-20 14:44:00,
2013-02-20 09:49:00,76.3,0.0,30.10,NNE,25,2.0,8.0,0,0.00,,FEW050,0.00,VWS V13.01,2013-02-20 14:49:00,
2013-02-20 09:54:00,75.8,0.0,30.10,NNE,30,3.0,9.0,0,0.00,,FEW050,0.00,VWS V13.01,2013-02-20 14:54:00,
2013-02-20 09:59:00,75.4,0.0,30.10,NNE,29,2.0,9.0,0,0.00,,FEW050,0.00,VWS V13.01,2013-02-20 14:59:00,
2013-02-20 10:04:00,75.3,0.0,30.10,NNE,26,0.0,7.0,0,0.00,,FEW050,0.00,VWS V13.01,2013-02-20 15:04:00,
2013-02-20 10:09:00,74.9,0.0,30.10,NNE,26,2.0,7.0,0,0.00,,FEW050,0.00,VWS V13.01,2013-02-20 15:09:00,
2013-02-20 10:14:00,74.6,0.0,30.10,NNE,26,4.0,7.0,0,0.00,,FEW050,0.00,VWS V13.01,2013-02-20 15:14:00,
2013-02-20 10:19:00,73.8,0.0,30.10,NNE,27,3.0,7.0,0,0.00,,FEW050,0.00,VWS V13.01,2013-02-20 15:19:00,
2013-02-20 10:24:00,73.0,0.0,30.09,NE,41,4.0,7.0,0,0.00,,FEW050,0.00,VWS V13.01,2013-02-20 15:24:00,
2013-02-20 10:29:00,73.4,-12.1,30.09,ENE,57,2.0,7.0,3,0.00,,FEW050,0.00,VWS V13.01,2013-02-20 15:29:00,
2013-02-20 10:34:00,74.2,23.6,30.09,ENE,60,4.0,6.0,15,0.00,,FEW050,0.00,VWS V13.01,2013-02-20 15:34:00,
2013-02-20 10:39:00,74.4,29.5,30.09,ENE,69,5.0,7.0,19,0.00,,FEW050,0.00,VWS V13.01,2013-02-20 15:39:00,
2013-02-20 10:44:00,75.0,36.8,30.09,ENE,75,4.0,7.0,25,0.00,,FEW050,0.00,VWS V13.01,2013-02-20 15:44:00,
2013-02-20 10:49:00,75.9,38.6,30.10,ENE,74,4.0,7.0,26,0.00,,FEW050,0.00,VWS V13.01,2013-02-20 15:49:00,
2013-02-20 10:54:00,76.2,40.8,30.10,ENE,65,3.0,8.0,28,0.00,,FEW050,0.00,VWS V13.01,2013-02-20 15:54:00,
2013-02-20 10:59:00,76.2,41.7,30.10,ENE,63,4.0,8.0,29,0.00,,FEW050,0.00,VWS V13.01,2013-02-20 15:59:00,
2013-02-20 11:04:00,77.4,45.3,30.09,ENE,63,0.0,5.0,32,0.00,,FEW050,0.00,VWS V13.01,2013-02-20 16:04:00,
2013-02-20 11:09:00,78.1,47.5,30.09,NE,48,3.0,10.0,34,0.00,,FEW050,0.00,VWS V13.01,2013-02-20 16:09:00,
2013-02-20 11:14:00,78.2,47.6,30.09,ENE,62,4.0,10.0,34,0.00,,FEW050,0.00,VWS V13.01,2013-02-20 16:14:00,
2013-02-20 11:19:00,77.5,47.7,30.09,East,97,7.0,12.0,35,0.00,,FEW050,0.00,VWS V13.01,2013-02-20 16:19:00,
2013-02-20 11:24:00,77.5,47.7,30.09,ENE,76,4.0,12.0,35,0.00,,FEW050,0.00,VWS V13.01,2013-02-20 16:24:00,
2013-02-20 11:29:00,76.5,43.7,30.09,NE,55,4.0,12.0,31,0.00,,FEW050,0.00,VWS V13.01,2013-02-20 16:29:00,
2013-02-20 11:34:00,75.2,37.0,30.08,ENE,63,3.0,7.0,25,0.00,,FEW050,0.00,VWS V13.01,2013-02-20 16:34:00,
2013-02-20 11:39:00,74.6,29.7,30.08,NE,43,3.0,8.0,19,0.00,,FEW050,0.00,VWS V13.01,2013-02-20 16:39:00,
2013-02-20 11:44:00,74.3,22.1,30.08,NE,46,2.0,10.0,14,0.00,,FEW050,0.00,VWS V13.01,2013-02-20 16:44:00,
2013-02-20 11:49:00,73.9,-19.7,30.08,East,80,3.0,10.0,2,0.00,,FEW050,0.00,VWS V13.01,2013-02-20 16:49:00,
2013-02-20 11:54:00,74.7,-0.7,30.08,East,98,7.0,10.0,5,0.00,,FEW050,0.00,VWS V13.01,2013-02-20 16:54:00,
2013-02-20 11:59:00,74.2,-19.5,30.08,ENE,70,3.0,10.0,2,0.00,,FEW050,0.00,VWS V13.01,2013-02-20 16:59:00,
2013-02-20 12:04:00,74.2,0.0,30.08,ENE,71,4.0,6.0,0,0.00,,SCT100,0.00,VWS V13.01,2013-02-20 17:04:00,
2013-02-20 12:09:00,74.2,0.0,30.08,NE,55,6.0,8.0,0,0.00,,SCT100,0.00,VWS V13.01,2013-02-20 17:09:00,
2013-02-20 12:14:00,74.1,0.0,30.08,NE,55,4.0,8.0,0,0.00,,SCT100,0.00,VWS V13.01,2013-02-20 17:14:00,
2013-02-20 12:19:00,73.8,0.0,30.07,ENE,73,4.0,8.0,0,0.00,,SCT100,0.00,VWS V13.01,2013-02-20 17:19:00,
2013-02-20 12:24:00,74.0,0.0,30.07,ENE,57,0.0,10.0,0,0.00,,SCT100,0.00,VWS V13.01,2013-02-20 17:24:00,
2013-02-20 12:29:00,74.3,0.0,30.07,NE,53,5.0,10.0,0,0.00,,SCT100,0.00,VWS V13.01,2013-02-20 17:29:00,
2013-02-20 12:34:00,74.5,0.0,30.07,NNE,25,3.0,10.0,0,0.00,,SCT100,0.00,VWS V13.01,2013-02-20 17:34:00,
2013-02-20 12:39:00,74.7,0.0,30.07,ENE,58,5.0,12.0,0,0.00,,SCT100,0.00,VWS V13.01,2013-02-20 17:39:00,
2013-02-20 12:44:00,75.0,0.0,30.07,ENE,64,6.0,12.0,0,0.00,,SCT100,0.00,VWS V13.01,2013-02-20 17:44:00,
2013-02-20 12:49:00,75.1,0.0,30.07,ENE,78,3.0,12.0,0,0.00,,SCT100,0.00,VWS V13.01,2013-02-20 17:49:00,
2013-02-20 12:54:00,74.9,0.0,30.07,NNE,31,8.0,12.0,0,0.00,,SCT100,0.00,VWS V13.01,2013-02-20 17:54:00,
2013-02-20 12:59:00,75.2,0.0,30.08,NE,55,7.0,12.0,0,0.00,,SCT100,0.00,VWS V13.01,2013-02-20 17:59:00,
2013-02-20 13:04:00,74.3,0.0,30.08,NE,45,3.0,7.0,0,0.00,,BKN060,0.00,VWS V13.01,2013-02-20 18:04:00,
2013-02-20 13:09:00,74.0,0.0,30.08,ENE,60,3.0,11.0,0,0.00,,BKN060,0.00,VWS V13.01,2013-02-20 18:09:00,
2013-02-20 13:14:00,74.3,0.0,30.06,ENE,75,7.0,11.0,0,0.00,,BKN060,0.00,VWS V13.01,2013-02-20 18:14:00,
2013-02-20 13:19:00,74.5,0.0,30.07,ENE,59,4.0,11.0,0,0.00,,BKN060,0.00,VWS V13.01,2013-02-20 18:19:00,
2013-02-20 13:24:00,74.9,0.0,30.07,NE,55,4.0,11.0,0,0.00,,BKN060,0.00,VWS V13.01,2013-02-20 18:24:00,
2013-02-20 13:29:00,75.0,0.0,30.06,ENE,61,5.0,11.0,0,0.00,,BKN060,0.00,VWS V13.01,2013-02-20 18:29:00,
2013-02-20 13:34:00,75.1,0.0,30.06,ENE,78,4.0,11.0,0,0.00,,BKN060,0.00,VWS V13.01,2013-02-20 18:34:00,
2013-02-20 13:39:00,74.6,0.0,30.05,ENE,68,5.0,12.0,0,0.00,,BKN060,0.00,VWS V13.01,2013-02-20 18:39:00,
2013-02-20 13:44:00,74.6,0.0,30.05,East,100,7.0,12.0,0,0.00,,BKN060,0.00,VWS V13.01,2013-02-20 18:44:00,
2013-02-20 13:49:00,74.6,0.0,30.04,ENE,76,5.0,12.0,0,0.00,,BKN060,0.00,VWS V13.01,2013-02-20 18:49:00,
2013-02-20 13:54:00,74.6,0.0,30.03,NE,45,3.0,13.0,0,0.00,,BKN060,0.00,VWS V13.01,2013-02-20 18:54:00,
2013-02-20 13:59:00,74.7,0.0,30.03,ENE,58,1.0,13.0,0,0.00,,BKN060,0.00,VWS V13.01,2013-02-20 18:59:00,
2013-02-20 14:04:00,74.4,0.0,30.03,ENE,57,4.0,12.0,0,0.00,,BKN060,0.00,VWS V13.01,2013-02-20 19:04:00,
2013-02-20 14:09:00,74.7,0.0,30.04,ENE,76,2.0,12.0,0,0.00,,BKN060,0.00,VWS V13.01,2013-02-20 19:09:00,
2013-02-20 14:14:00,74.3,0.0,30.03,ENE,63,2.0,12.0,0,0.00,,BKN060,0.00,VWS V13.01,2013-02-20 19:14:00,
2013-02-20 14:19:00,74.8,0.0,30.03,ESE,107,0.0,12.0,0,0.00,,BKN060,0.00,VWS V13.01,2013-02-20 19:19:00,
2013-02-20 14:24:00,76.0,0.0,30.03,East,81,5.0,12.0,0,0.00,,BKN060,0.00,VWS V13.01,2013-02-20 19:24:00,
2013-02-20 14:29:00,77.3,0.0,30.03,East,91,5.0,12.0,0,0.00,,BKN060,0.00,VWS V13.01,2013-02-20 19:29:00,
2013-02-20 14:34:00,78.1,0.0,30.02,ESE,107,2.0,9.0,0,0.00,,BKN060,0.00,VWS V13.01,2013-02-20 19:34:00,
2013-02-20 14:39:00,78.6,0.0,30.02,East,94,5.0,11.0,0,0.00,,BKN060,0.00,VWS V13.01,2013-02-20 19:39:00,
2013-02-20 14:44:00,78.3,0.0,30.02,ESE,111,7.0,12.0,0,0.00,,BKN060,0.00,VWS V13.01,2013-02-20 19:44:00,
2013-02-20 14:49:00,78.5,0.0,30.02,ESE,117,6.0,12.0,0,0.00,,BKN060,0.00,VWS V13.01,2013-02-20 19:49:00,
2013-02-20 14:54:00,78.3,0.0,30.02,East,95,4.0,12.0,0,0.00,,BKN060,0.00,VWS V13.01,2013-02-20 19:54:00,
2013-02-20 14:59:00,78.8,0.0,30.02,East,92,5.0,12.0,0,0.00,,BKN060,0.00,VWS V13.01,2013-02-20 19:59:00,
2013-02-20 15:04:00,78.7,0.0,30.02,East,89,3.0,11.0,0,0.00,,SCT033,0.00,VWS V13.01,2013-02-20 20:04:00,
2013-02-20 15:09:00,79.1,0.0,30.02,East,89,0.0,11.0,0,0.00,,SCT033,0.00,VWS V13.01,2013-02-20 20:09:00,
2013-02-20 15:14:00,79.6,0.0,30.01,ESE,103,8.0,13.0,0,0.00,,SCT033,0.00,VWS V13.01,2013-02-20 20:14:00,
2013-02-20 15:19:00,79.8,0.0,30.01,East,91,8.0,13.0,0,0.00,,SCT033,0.00,VWS V13.01,2013-02-20 20:19:00,
2013-02-20 15:24:00,79.1,0.0,30.01,East,100,7.0,13.0,0,0.00,,SCT033,0.00,VWS V13.01,2013-02-20 20:24:00,
2013-02-20 15:29:00,80.0,0.0,30.01,East,92,2.0,13.0,0,0.00,,SCT033,0.00,VWS V13.01,2013-02-20 20:29:00,
2013-02-20 15:34:00,79.3,0.0,30.01,East,101,5.0,12.0,0,0.00,,SCT033,0.00,VWS V13.01,2013-02-20 20:34:00,
2013-02-20 15:39:00,79.0,0.0,30.00,ESE,122,1.0,14.0,0,0.00,,SCT033,0.00,VWS V13.01,2013-02-20 20:39:00,
2013-02-20 15:44:00,79.1,0.0,30.00,East,90,5.0,14.0,0,0.00,,SCT033,0.00,VWS V13.01,2013-02-20 20:44:00,
2013-02-20 15:49:00,78.8,0.0,30.00,ESE,104,8.0,14.0,0,0.00,,SCT033,0.00,VWS V13.01,2013-02-20 20:49:00,
2013-02-20 15:54:00,78.8,0.0,30.01,ESE,117,0.0,14.0,0,0.00,,SCT033,0.00,VWS V13.01,2013-02-20 20:54:00,
2013-02-20 15:59:00,78.9,0.0,30.01,East,93,0.0,14.0,0,0.00,,SCT033,0.00,VWS V13.01,2013-02-20 20:59:00,
2013-02-20 16:04:00,79.0,0.0,30.01,East,90,6.0,11.0,0,0.00,,SCT033,0.00,VWS V13.01,2013-02-20 21:04:00,
2013-02-20 16:09:00,78.5,0.0,30.01,ESE,108,6.0,11.0,0,0.00,,SCT033,0.00,VWS V13.01,2013-02-20 21:09:00,
2013-02-20 16:14:00,78.5,0.0,30.01,ESE,110,0.0,14.0,0,0.00,,SCT033,0.00,VWS V13.01,2013-02-20 21:14:00,
2013-02-20 16:19:00,78.4,0.0,30.01,ESE,105,4.0,14.0,0,0.00,,SCT033,0.00,VWS V13.01,2013-02-20 21:19:00,
2013-02-20 16:24:00,78.3,0.0,30.01,ESE,106,0.0,14.0,0,0.00,,SCT033,0.00,VWS V13.01,2013-02-20 21:24:00,
2013-02-20 16:29:00,77.9,0.0,30.01,ESE,113,0.0,14.0,0,0.00,,SCT033,0.00,VWS V13.01,2013-02-20 21:29:00,
2013-02-20 16:34:00,78.4,0.0,30.01,ESE,111,5.0,8.0,0,0.00,,SCT033,0.00,VWS V13.01,2013-02-20 21:34:00,
2013-02-20 16:39:00,78.1,0.0,30.01,ESE,111,6.0,12.0,0,0.00,,SCT033,0.00,VWS V13.01,2013-02-20 21:39:00,
2013-02-20 16:44:00,77.7,0.0,30.01,ESE,105,4.0,12.0,0,0.00,,SCT033,0.00,VWS V13.01,2013-02-20 21:44:00,
2013-02-20 16:49:00,77.6,0.0,30.01,ESE,111,5.0,12.0,0,0.00,,SCT033,0.00,VWS V13.01,2013-02-20 21:49:00,
2013-02-20 16:54:00,77.8,0.0,30.01,ESE,109,8.0,12.0,0,0.00,,SCT033,0.00,VWS V13.01,2013-02-20 21:54:00,
2013-02-20 16:59:00,78.0,0.0,30.01,ESE,110,2.0,12.0,0,0.00,,SCT033,0.00,VWS V13.01,2013-02-20 21:59:00,
2013-02-20 17:04:00,77.8,0.0,30.01,East,95,1.0,9.0,0,0.00,,SCT100,0.00,VWS V13.01,2013-02-20 22:04:00,
2013-02-20 17:09:00,77.5,0.0,30.01,ESE,104,4.0,9.0,0,0.00,,SCT100,0.00,VWS V13.01,2013-02-20 22:09:00,
2013-02-20 17:14:00,77.4,0.0,30.01,ESE,109,0.0,11.0,0,0.00,,SCT100,0.00,VWS V13.01,2013-02-20 22:14:00,
2013-02-20 17:19:00,77.3,0.0,30.01,ESE,109,5.0,11.0,0,0.00,,SCT100,0.00,VWS V13.01,2013-02-20 22:19:00,
2013-02-20 17:24:00,77.2,0.0,30.02,ESE,103,0.0,11.0,0,0.00,,SCT100,0.00,VWS V13.01,2013-02-20 22:24:00,
2013-02-20 17:29:00,77.1,0.0,30.02,ESE,107,5.0,11.0,0,0.00,,SCT100,0.00,VWS V13.01,2013-02-20 22:29:00,
2013-02-20 17:34:00,76.9,0.0,30.02,East,97,0.0,7.0,0,0.00,,SCT100,0.00,VWS V13.01,2013-02-20 22:34:00,
2013-02-20 17:39:00,76.8,0.0,30.02,East,97,1.0,7.0,0,0.00,,SCT100,0.00,VWS V13.01,2013-02-20 22:39:00,
2013-02-20 17:44:00,76.6,0.0,30.02,East,98,2.0,7.0,0,0.00,,SCT100,0.00,VWS V13.01,2013-02-20 22:44:00,
2013-02-20 17:49:00,76.5,0.0,30.02,East,101,0.0,9.0,0,0.00,,SCT100,0.00,VWS V13.01,2013-02-20 22:49:00,
2013-02-20 17:54:00,76.3,0.0,30.02,East,101,5.0,9.0,0,0.00,,SCT100,0.00,VWS V13.01,2013-02-20 22:54:00,
2013-02-20 17:59:00,76.1,0.0,30.02,ESE,105,2.0,9.0,0,0.00,,SCT100,0.00,VWS V13.01,2013-02-20 22:59:00,
2013-02-20 18:04:00,75.8,0.0,30.02,ESE,107,4.0,9.0,0,0.00,,CLR,0.00,VWS V13.01,2013-02-20 23:04:00,
2013-02-20 18:09:00,75.6,0.0,30.03,ESE,105,7.0,9.0,0,0.00,,CLR,0.00,VWS V13.01,2013-02-20 23:09:00,
2013-02-20 18:14:00,75.5,0.0,30.03,ESE,107,0.0,9.0,0,0.00,,CLR,0.00,VWS V13.01,2013-02-20 23:14:00,
2013-02-20 18:19:00,75.3,0.0,30.03,ESE,107,4.0,9.0,0,0.00,,CLR,0.00,VWS V13.01,2013-02-20 23:19:00,
2013-02-20 18:24:00,75.1,0.0,30.03,ESE,107,2.0,9.0,0,0.00,,CLR,0.00,VWS V13.01,2013-02-20 23:24:00,
2013-02-20 18:29:00,74.9,0.0,30.03,ESE,108,0.0,9.0,0,0.00,,CLR,0.00,VWS V13.01,2013-02-20 23:29:00,
2013-02-20 18:34:00,74.8,0.0,30.03,ESE,108,0.0,1.0,0,0.00,,CLR,0.00,VWS V13.01,2013-02-20 23:34:00,
2013-02-20 18:39:00,74.7,0.0,30.04,ESE,108,0.0,5.0,0,0.00,,CLR,0.00,VWS V13.01,2013-02-20 23:39:00,
2013-02-20 18:44:00,74.6,0.0,30.04,ESE,108,0.0,5.0,0,0.00,,CLR,0.00,VWS V13.01,2013-02-20 23:44:00,
2013-02-20 18:49:00,74.4,0.0,30.05,ESE,108,0.0,5.0,0,0.00,,CLR,0.00,VWS V13.01,2013-02-20 23:49:00,
2013-02-20 18:54:00,74.3,0.0,30.05,ESE,108,0.0,5.0,0,0.00,,CLR,0.00,VWS V13.01,2013-02-20 23:54:00,
2013-02-20 18:59:00,74.2,0.0,30.05,ESE,108,0.0,5.0,0,0.00,,CLR,0.00,VWS V13.01,2013-02-20 23:59:00,
2013-02-20 19:04:00,74.1,0.0,30.05,ESE,108,0.0,0.0,0,0.00,,FEW060,0.00,VWS V13.01,2013-02-21 00:04:00,
2013-02-20 19:09:00,74.0,0.0,30.05,ESE,108,0.0,0.0,0,0.00,,FEW060,0.00,VWS V13.01,2013-02-21 00:09:00,
2013-02-20 19:14:00,74.0,0.0,30.05,ESE,108,0.0,1.0,0,0.00,,FEW060,0.00,VWS V13.01,2013-02-21 00:14:00,
2013-02-20 19:19:00,73.9,0.0,30.05,ESE,108,0.0,1.0,0,0.00,,FEW060,0.00,VWS V13.01,2013-02-21 00:19:00,
2013-02-20 19:24:00,73.8,0.0,30.05,ESE,108,0.0,1.0,0,0.00,,FEW060,0.00,VWS V13.01,2013-02-21 00:24:00,
2013-02-20 19:29:00,73.7,0.0,30.06,ESE,108,0.0,1.0,0,0.00,,FEW060,0.00,VWS V13.01,2013-02-21 00:29:00,
2013-02-20 19:34:00,73.6,0.0,30.06,ESE,108,0.0,0.0,0,0.00,,FEW060,0.00,VWS V13.01,2013-02-21 00:34:00,
2013-02-20 19:39:00,73.6,0.0,30.06,ESE,108,0.0,1.0,0,0.00,,FEW060,0.00,VWS V13.01,2013-02-21 00:39:00,
2013-02-20 19:44:00,73.5,0.0,30.06,ESE,108,0.0,1.0,0,0.00,,FEW060,0.00,VWS V13.01,2013-02-21 00:44:00,
2013-02-20 19:49:00,73.3,0.0,30.06,ESE,108,0.0,1.0,0,0.00,,FEW060,0.00,VWS V13.01,2013-02-21 00:49:00,
2013-02-20 19:54:00,73.3,0.0,30.05,ESE,108,0.0,1.0,0,0.00,,FEW060,0.00,VWS V13.01,2013-02-21 00:54:00,
2013-02-20 19:59:00,73.3,0.0,30.05,ESE,108,0.0,1.0,0,0.00,,FEW060,0.00,VWS V13.01,2013-02-21 00:59:00,
2013-02-20 20:04:00,73.2,0.0,30.06,ESE,108,0.0,0.0,0,0.00,,FEW070,0.00,VWS V13.01,2013-02-21 01:04:00,
2013-02-20 20:09:00,73.1,0.0,30.06,ESE,108,0.0,0.0,0,0.00,,FEW070,0.00,VWS V13.01,2013-02-21 01:09:00,
2013-02-20 20:14:00,73.1,0.0,30.05,ESE,108,0.0,0.0,0,0.00,,FEW070,0.00,VWS V13.01,2013-02-21 01:14:00,
2013-02-20 20:19:00,73.0,0.0,30.05,ESE,108,0.0,0.0,0,0.00,,FEW070,0.00,VWS V13.01,2013-02-21 01:19:00,
2013-02-20 20:24:00,72.9,0.0,30.05,ESE,108,0.0,0.0,0,0.00,,FEW070,0.00,VWS V13.01,2013-02-21 01:24:00,
2013-02-20 20:29:00,72.8,0.0,30.05,ESE,108,0.0,0.0,0,0.00,,FEW070,0.00,VWS V13.01,2013-02-21 01:29:00,
2013-02-20 20:34:00,72.8,0.0,30.05,ESE,108,0.0,0.0,0,0.00,,FEW070,0.00,VWS V13.01,2013-02-21 01:34:00,
2013-02-20 20:39:00,72.6,0.0,30.05,ESE,108,0.0,0.0,0,0.00,,FEW070,0.00,VWS V13.01,2013-02-21 01:39:00,
2013-02-20 20:44:00,72.6,0.0,30.05,ESE,108,0.0,0.0,0,0.00,,FEW070,0.00,VWS V13.01,2013-02-21 01:44:00,
2013-02-20 20:49:00,72.5,0.0,30.06,ESE,108,0.0,0.0,0,0.00,,FEW070,0.00,VWS V13.01,2013-02-21 01:49:00,
2013-02-20 20:54:00,72.4,0.0,30.06,ESE,108,0.0,0.0,0,0.00,,FEW070,0.00,VWS V13.01,2013-02-21 01:54:00,
2013-02-20 20:59:00,72.4,0.0,30.06,ESE,108,0.0,0.0,0,0.00,,FEW070,0.00,VWS V13.01,2013-02-21 01:59:00,
2013-02-20 21:04:00,72.2,0.0,30.06,ESE,108,0.0,0.0,0,0.00,,FEW070,0.00,VWS V13.01,2013-02-21 02:04:00,
2013-02-20 21:09:00,72.2,0.0,30.05,ESE,108,0.0,0.0,0,0.00,,FEW070,0.00,VWS V13.01,2013-02-21 02:09:00,
2013-02-20 21:14:00,72.1,0.0,30.05,ESE,108,0.0,0.0,0,0.00,,FEW070,0.00,VWS V13.01,2013-02-21 02:14:00,
2013-02-20 21:19:00,72.1,0.0,30.06,ESE,108,0.0,0.0,0,0.00,,FEW070,0.00,VWS V13.01,2013-02-21 02:19:00,
2013-02-20 21:24:00,72.0,0.0,30.06,ESE,108,0.0,0.0,0,0.00,,FEW070,0.00,VWS V13.01,2013-02-21 02:24:00,
2013-02-20 21:29:00,72.0,0.0,30.06,ESE,108,0.0,0.0,0,0.00,,FEW070,0.00,VWS V13.01,2013-02-21 02:29:00,
2013-02-20 21:34:00,71.9,0.0,30.06,ESE,108,0.0,0.0,0,0.00,,FEW070,0.00,VWS V13.01,2013-02-21 02:34:00,
2013-02-20 21:39:00,71.9,0.0,30.06,ESE,108,0.0,0.0,0,0.00,,FEW070,0.00,VWS V13.01,2013-02-21 02:39:00,
2013-02-20 21:44:00,71.8,0.0,30.07,ESE,108,0.0,0.0,0,0.00,,FEW070,0.00,VWS V13.01,2013-02-21 02:44:00,
2013-02-20 21:49:00,71.7,0.0,30.07,ESE,108,0.0,0.0,0,0.00,,FEW070,0.00,VWS V13.01,2013-02-21 02:49:00,
2013-02-20 21:54:00,71.6,0.0,30.07,ESE,108,0.0,0.0,0,0.00,,FEW070,0.00,VWS V13.01,2013-02-21 02:54:00,
2013-02-20 21:59:00,71.6,0.0,30.07,ESE,108,0.0,0.0,0,0.00,,FEW070,0.00,VWS V13.01,2013-02-21 02:59:00,
2013-02-20 22:04:00,71.6,0.0,30.07,ESE,108,0.0,0.0,0,0.00,,SCT070,0.00,VWS V13.01,2013-02-21 03:04:00,
2013-02-20 22:09:00,71.6,0.0,30.07,ESE,108,0.0,0.0,0,0.00,,SCT070,0.00,VWS V13.01,2013-02-21 03:09:00,
2013-02-20 22:14:00,71.6,0.0,30.07,ESE,108,0.0,0.0,0,0.00,,SCT070,0.00,VWS V13.01,2013-02-21 03:14:00,
2013-02-20 22:19:00,71.7,0.0,30.07,ESE,108,0.0,0.0,0,0.00,,SCT070,0.00,VWS V13.01,2013-02-21 03:19:00,
2013-02-20 22:24:00,71.7,0.0,30.07,ESE,108,0.0,0.0,0,0.00,,SCT070,0.00,VWS V13.01,2013-02-21 03:24:00,
2013-02-20 22:29:00,71.8,0.0,30.07,ESE,108,0.0,0.0,0,0.00,,SCT070,0.00,VWS V13.01,2013-02-21 03:29:00,
2013-02-20 22:34:00,71.8,0.0,30.07,ESE,108,0.0,0.0,0,0.00,,SCT070,0.00,VWS V13.01,2013-02-21 03:34:00,
2013-02-20 22:39:00,71.8,0.0,30.07,ESE,108,0.0,0.0,0,0.00,,SCT070,0.00,VWS V13.01,2013-02-21 03:39:00,
2013-02-20 22:44:00,71.9,0.0,30.07,ESE,108,0.0,0.0,0,0.00,,SCT070,0.00,VWS V13.01,2013-02-21 03:44:00,
2013-02-20 22:49:00,72.0,0.0,30.07,ESE,108,0.0,0.0,0,0.00,,SCT070,0.00,VWS V13.01,2013-02-21 03:49:00,
2013-02-20 22:54:00,72.0,0.0,30.07,ESE,108,0.0,0.0,0,0.00,,SCT070,0.00,VWS V13.01,2013-02-21 03:54:00,
2013-02-20 22:59:00,72.0,0.0,30.07,ESE,108,0.0,0.0,0,0.00,,SCT070,0.00,VWS V13.01,2013-02-21 03:59:00,
2013-02-20 23:04:00,72.1,0.0,30.07,ESE,108,0.0,0.0,0,0.00,,OVC070,0.00,VWS V13.01,2013-02-21 04:04:00,
2013-02-20 23:09:00,72.2,0.0,30.07,ESE,108,0.0,0.0,0,0.00,,OVC070,0.00,VWS V13.01,2013-02-21 04:09:00,
2013-02-20 23:14:00,72.3,0.0,30.07,ESE,108,0.0,0.0,0,0.00,,OVC070,0.00,VWS V13.01,2013-02-21 04:14:00,
2013-02-20 23:19:00,72.3,0.0,30.07,ESE,108,0.0,0.0,0,0.00,,OVC070,0.00,VWS V13.01,2013-02-21 04:19:00,
2013-02-20 23:24:00,72.4,0.0,30.06,ESE,108,0.0,0.0,0,0.00,,OVC070,0.00,VWS V13.01,2013-02-21 04:24:00,
2013-02-20 23:29:00,72.4,0.0,30.06,ESE,108,0.0,0.0,0,0.00,,OVC070,0.00,VWS V13.01,2013-02-21 04:29:00,
2013-02-20 23:34:00,72.5,0.0,30.06,ESE,108,0.0,0.0,0,0.00,,OVC070,0.00,VWS V13.01,2013-02-21 04:34:00,
2013-02-20 23:39:00,72.5,0.0,30.07,ESE,108,0.0,0.0,0,0.00,,OVC070,0.00,VWS V13.01,2013-02-21 04:39:00,
2013-02-20 23:44:00,72.6,0.0,30.06,ESE,108,0.0,0.0,0,0.00,,OVC070,0.00,VWS V13.01,2013-02-21 04:44:00,
2013-02-20 23:49:00,72.6,0.0,30.06,ESE,108,0.0,0.0,0,0.00,,OVC070,0.00,VWS V13.01,2013-02-21 04:49:00,
2013-02-20 23:54:00,72.6,0.0,30.06,ESE,108,0.0,0.0,0,0.00,,OVC070,0.00,VWS V13.01,2013-02-21 04:54:00,
2013-02-20 23:58:00,72.6,0.0,30.06,ESE,108,0.0,0.0,0,0.00,,OVC070,0.00,VWS V13.01,2013-02-21 04:58:00,